Location: Fort Frances
(48.6170°N, 93.4170°W)
Time: 04:12:51
(UTC-05:00)

ISS - All Passes

Search period start: 24 May 2015 00:00
Search period end: 03 June 2015 00:00
Orbit: 399 x 404 km, 51.6° (Epoch: 24 May)

Date Brightness Start Highest point End Pass type
(mag) Time Alt. Az. Time Alt. Az. Time Alt. Az.
24 May - 00:51:38 10° SSE 00:53:14 13° SE 00:54:55 10° ESE visible
24 May - 02:25:57 10° SW 02:29:10 65° SSE 02:32:26 10° ENE visible
24 May - 04:02:30 10° W 04:05:42 50° N 04:08:54 10° ENE visible
24 May - 05:39:09 10° WNW 05:42:25 60° NNE 05:45:39 10° E daylight
24 May - 07:15:40 10° WNW 07:18:46 39° SSW 07:21:50 10° SE daylight
25 May - 01:32:57 10° SW 01:36:02 40° SSE 01:39:08 10° ENE visible
25 May - 03:09:10 10° W 03:12:25 59° NNW 03:15:39 10° ENE visible
25 May - 04:45:54 10° WNW 04:49:06 50° N 04:52:19 10° E daylight
25 May - 06:22:22 10° WNW 06:25:37 64° SSW 06:28:52 10° SE daylight
25 May - 07:59:57 10° WSW 08:01:33 13° SW 08:03:04 10° SSW daylight
26 May - 00:40:13 10° SSW 00:42:56 25° SE 00:45:41 10° E visible
26 May - 02:15:51 10° WSW 02:19:07 78° NNW 02:22:24 10° ENE visible
26 May - 03:52:36 10° WNW 03:55:46 47° N 03:58:57 10° ENE visible
26 May - 05:29:07 10° WNW 05:32:24 86° NNE 05:35:41 10° ESE daylight
26 May - 07:05:56 10° W 07:08:32 21° SW 07:11:04 10° SSE daylight
26 May - 23:47:57 10° S 23:49:52 15° SE 23:51:52 10° E visible
27 May - 01:22:37 10° WSW 01:25:52 73° SSE 01:29:08 10° ENE visible
27 May - 02:59:14 10° W 03:02:25 48° N 03:05:36 10° ENE visible
27 May - 04:35:51 10° WNW 04:39:06 64° NNE 04:42:22 10° E visible
27 May - 06:12:23 10° W 06:15:25 35° SSW 06:18:26 10° SSE daylight
28 May - 00:29:32 10° SW 00:32:39 45° SSE 00:35:48 10° ENE visible
28 May - 02:05:50 10° W 02:09:03 56° NNW 02:12:17 10° ENE visible
28 May - 03:42:33 10° WNW 03:45:45 52° N 03:48:58 10° E visible
28 May - 05:19:01 10° WNW 05:22:13 57° SSW 05:25:26 10° SE daylight
28 May - 06:57:01 10° WSW 06:58:07 11° SW 06:59:07 10° SSW daylight
28 May - 23:36:39 10° SSW 23:39:28 28° SE 23:42:20 10° E visible
29 May - 01:12:27 10° WSW 01:15:42 72° NNW 01:18:58 10° ENE visible
29 May - 02:49:11 10° WNW 02:52:22 47° N 02:55:33 10° ENE visible
29 May - 04:25:41 10° WNW 04:28:58 87° SSW 04:32:14 10° ESE visible
29 May - 06:02:37 10° W 06:05:02 19° SW 06:07:25 10° S daylight
29 May - 22:44:10 10° S 22:46:20 17° SE 22:48:34 10° E visible
30 May - 00:19:07 10° WSW 00:22:23 80° SSE 00:25:39 10° ENE visible
30 May - 01:55:46 10° W 01:58:57 47° N 02:02:08 10° ENE visible
30 May - 03:32:22 10° WNW 03:35:37 68° NNE 03:38:53 10° E visible
30 May - 05:08:57 10° W 05:11:53 31° SW 05:14:49 10° SSE daylight
30 May - 23:25:55 10° SW 23:29:05 51° SSE 23:32:16 10° ENE visible
31 May - 01:02:19 10° W 01:05:32 53° N 01:08:44 10° ENE visible
31 May - 02:39:00 10° WNW 02:42:13 54° N 02:45:26 10° E visible
31 May - 04:15:28 10° WNW 04:18:39 50° SSW 04:21:50 10° SE visible
31 May - 22:32:55 10° SSW 22:35:50 31° SE 22:38:47 10° E visible
01 Jun - 00:08:51 10° W 00:12:06 67° NNW 00:15:21 10° ENE visible
01 Jun - 01:45:36 10° WNW 01:48:46 47° N 01:51:57 10° E visible
01 Jun - 03:22:04 10° WNW 03:25:20 79° SSW 03:28:36 10° ESE visible
01 Jun - 04:59:09 10° W 05:01:22 17° SW 05:03:32 10° S daylight
01 Jun - 21:40:15 10° S 21:42:38 19° SE 21:45:03 10° E daylight
01 Jun - 23:15:27 10° WSW 23:18:42 88° SSE 23:21:59 10° ENE visible
02 Jun - 00:52:08 10° WNW 00:55:18 47° N 00:58:28 10° ENE visible
02 Jun - 02:28:41 10° WNW 02:31:57 73° NNE 02:35:13 10° ESE visible
02 Jun - 04:05:20 10° W 04:08:10 27° SW 04:11:00 10° SSE visible
02 Jun - 20:48:27 10° SSE 20:49:28 11° SE 20:50:34 10° ESE daylight
02 Jun - 22:22:09 10° SW 22:25:20 57° SSE 22:28:33 10° ENE visible
